This is the latest recevied weather packets stored in our database for station/object N4QD-13. If no packets are shown the sender has not sent any weather packets the latest 10 day(s).
| Time | Temp. | Humidity | Pressure | Rain* | Wind** | Luminosity | Snow |
|---|---|---|---|---|---|---|---|
| 1778108581 | 22.78° C | 79% | 1009.6 hPa | 0 mm | - | 62 W/m² | - |
| 1778108277 | 22.78° C | 79% | 1009.5 hPa | 0 mm | - | 90 W/m² | - |
| 1778107974 | 22.78° C | 79% | 1009.4 hPa | 0 mm | - | 101 W/m² | - |
| 1778107671 | 22.78° C | 78% | 1009.6 hPa | 0 mm | - | 81 W/m² | - |
| 1778107369 | 22.78° C | 78% | 1009.2 hPa | 0 mm | - | 80 W/m² | - |
| 1778107064 | 22.78° C | 78% | 1009.4 hPa | 0 mm | - | 85 W/m² | - |
| 1778106760 | 22.78° C | 77% | 1009.5 hPa | 0 mm | - | 65 W/m² | - |
| 1778106457 | 22.78° C | 77% | 1009.5 hPa | 0 mm | - | 63 W/m² | - |
| 1778106153 | 22.78° C | 77% | 1009.1 hPa | 0 mm | - | 58 W/m² | - |
| 1778105851 | 22.78° C | 77% | 1009.5 hPa | 0 mm | - | 73 W/m² | - |
| 1778105549 | 23.33° C | 76% | 1009.4 hPa | 0 mm | - | 104 W/m² | - |
| 1778105246 | 23.33° C | 76% | 1009.6 hPa | 0 mm | - | 124 W/m² | - |
| 1778104940 | 23.33° C | 75% | 1009.2 hPa | 0 mm | - | 176 W/m² | - |
| 1778104637 | 23.33° C | 75% | 1009.1 hPa | 0 mm | - | 241 W/m² | - |
| 1778104333 | 23.33° C | 76% | 1009.1 hPa | 0 mm | - | 107 W/m² | - |
| 1778104030 | 23.33° C | 76% | 1009 hPa | 0 mm | - | 126 W/m² | - |
| 1778103727 | 23.33° C | 76% | 1009.4 hPa | 0 mm | - | 128 W/m² | - |
| 1778103425 | 23.33° C | 75% | 1009.1 hPa | 0 mm | - | 121 W/m² | - |
| 1778103122 | 23.33° C | 75% | 1009 hPa | 0 mm | - | 117 W/m² | - |
| 1778102819 | 23.33° C | 76% | 1009 hPa | 0 mm | - | 150 W/m² | - |
| 1778102515 | 23.89° C | 75% | 1008.9 hPa | 0 mm | - | 206 W/m² | - |
| 1778102210 | 23.89° C | 75% | 1008.8 hPa | 0 mm | - | 196 W/m² | - |
| 1778101907 | 23.89° C | 76% | 1009.1 hPa | 0 mm | - | 225 W/m² | - |
| 1778101604 | 23.33° C | 76% | 1008.9 hPa | 0 mm | - | 245 W/m² | - |
| 1778101300 | 23.33° C | 76% | 1008.7 hPa | 0 mm | - | 183 W/m² | - |
* Rain latest hour (hover to see other rain measurements)
** Current wind speed in m/s (hover to see current wind gust speed)